• In Deutschland
  • Länderverzeichnis
  • Für 7 Tage
  • Wassertemperatur
  • Satellitenkarten
  • Wetterkarte
  • Widgets
  • user-avatar
    Anmelden

    Stündliche Wetter Geesthacht

    Heute, 25 September, Dienstag

    Zeit Temperatur Niederschläge Wind Luftdruck Luftfeuchtigkeit
    00:00 +7°C° 0 mm 3 m/S 773 mmHg 76%
    01:00 +6°C° 0 mm 2 m/S 774 mmHg 82%
    02:00 +6°C° 0 mm 2 m/S 774 mmHg 84%
    03:00 +4°C° 0 mm 3 m/S 774 mmHg 85%
    04:00 +4°C° 0 mm 3 m/S 774 mmHg 86%
    05:00 +4°C° 0 mm 3 m/S 775 mmHg 86%
    06:00 +5°C° 0 mm 2 m/S 775 mmHg 86%
    07:00 +6°C° 0 mm 2 m/S 776 mmHg 86%
    08:00 +8°C° 0 mm 2 m/S 776 mmHg 76%
    09:00 +10°C° 0 mm 2 m/S 776 mmHg 66%
    10:00 +12°C° 0 mm 3 m/S 776 mmHg 56%
    11:00 +13°C° 0 mm 3 m/S 777 mmHg 53%
    12:00 +14°C° 0 mm 3 m/S 777 mmHg 50%
    13:00 +16°C° 0 mm 3 m/S 777 mmHg 47%
    14:00 +16°C° 0 mm 3 m/S 776 mmHg 48%
    15:00 +16°C° 0 mm 3 m/S 776 mmHg 49%
    16:00 +16°C° 0 mm 3 m/S 776 mmHg 50%
    17:00 +14°C° 0 mm 2 m/S 776 mmHg 56%
    18:00 +13°C° 0 mm 2 m/S 776 mmHg 63%
    19:00 +11°C° 0 mm 1 m/S 776 mmHg 70%
    20:00 +11°C° 0 mm 1 m/S 776 mmHg 72%
    21:00 +9°C° 0 mm 2 m/S 776 mmHg 74%
    22:00 +9°C° 0 mm 2 m/S 776 mmHg 76%
    23:00 +8°C° 0 mm 2 m/S 776 mmHg 78%

    Morgen, 26 September, Mittwoch

    Zeit Temperatur Niederschläge Wind Luftdruck Luftfeuchtigkeit
    00:00 +8°C° 0 mm 2 m/S 776 mmHg 80%
    01:00 +8°C° 0 mm 3 m/S 775 mmHg 82%
    02:00 +8°C° 0 mm 3 m/S 775 mmHg 80%
    03:00 +8°C° 0 mm 3 m/S 774 mmHg 79%
    04:00 +7°C° 0 mm 4 m/S 774 mmHg 77%
    05:00 +7°C° 0 mm 4 m/S 774 mmHg 74%
    06:00 +8°C° 0 mm 4 m/S 774 mmHg 72%
    07:00 +8°C° 0 mm 4 m/S 773 mmHg 69%
    08:00 +9°C° 0 mm 5 m/S 773 mmHg 63%
    09:00 +11°C° 0 mm 6 m/S 773 mmHg 57%
    10:00 +14°C° 0 mm 7 m/S 772 mmHg 50%
    11:00 +15°C° 0 mm 7 m/S 772 mmHg 48%
    12:00 +16°C° 0 mm 7 m/S 771 mmHg 45%
    13:00 +17°C° 0 mm 7 m/S 771 mmHg 43%
    14:00 +18°C° 0 mm 7 m/S 771 mmHg 44%
    15:00 +18°C° 0 mm 7 m/S 770 mmHg 45%
    16:00 +18°C° 0 mm 7 m/S 770 mmHg 46%
    17:00 +17°C° 0 mm 6 m/S 770 mmHg 51%
    18:00 +16°C° 0 mm 5 m/S 770 mmHg 56%
    19:00 +15°C° 0 mm 5 m/S 770 mmHg 61%
    20:00 +14°C° 0 mm 5 m/S 770 mmHg 64%
    21:00 +14°C° 0 mm 5 m/S 770 mmHg 67%
    22:00 +14°C° 0 mm 5 m/S 770 mmHg 70%
    23:00 +13°C° 0 mm 5 m/S 770 mmHg 73%

    übermorgen, 27 September, Donnerstag

    Zeit Temperatur Niederschläge Wind Luftdruck Luftfeuchtigkeit
    00:00 +13°C° 0 mm 5 m/S 770 mmHg 77%
    01:00 +13°C° 0 mm 5 m/S 770 mmHg 80%
    02:00 +13°C° 0 mm 5 m/S 770 mmHg 81%
    03:00 +12°C° 0 mm 4 m/S 770 mmHg 83%
    04:00 +12°C° 0 mm 4 m/S 770 mmHg 84%
    05:00 +12°C° 0 mm 4 m/S 770 mmHg 85%
    06:00 +12°C° 0 mm 4 m/S 770 mmHg 85%
    07:00 +12°C° 0 mm 4 m/S 770 mmHg 86%
    08:00 +14°C° 0 mm 4 m/S 770 mmHg 80%
    09:00 +16°C° 0 mm 5 m/S 769 mmHg 75%
    10:00 +17°C° 0 mm 5 m/S 769 mmHg 70%
    11:00 +20°C° 0 mm 5 m/S 769 mmHg 66%
    12:00 +21°C° 0 mm 5 m/S 769 mmHg 62%
    13:00 +22°C° 0 mm 5 m/S 768 mmHg 59%
    14:00 +22°C° 0 mm 5 m/S 768 mmHg 59%
    15:00 +22°C° 0 mm 5 m/S 767 mmHg 60%
    16:00 +22°C° 0 mm 4 m/S 767 mmHg 61%
    17:00 +21°C° 0 mm 4 m/S 766 mmHg 66%
    18:00 +20°C° 0 mm 3 m/S 766 mmHg 72%
    19:00 +18°C° 0 mm 3 m/S 766 mmHg 77%
    20:00 +18°C° 0 mm 3 m/S 765 mmHg 77%
    21:00 +17°C° 0 mm 3 m/S 765 mmHg 78%
    22:00 +16°C° 0 mm 3 m/S 765 mmHg 78%
    23:00 +14°C° 0 mm 3 m/S 764 mmHg 77%

    28 September, Freitag

    Zeit Temperatur Niederschläge Wind Luftdruck Luftfeuchtigkeit
    00:00 +14°C° 0 mm 3 m/S 764 mmHg 77%
    01:00 +13°C° 0 mm 4 m/S 764 mmHg 76%
    02:00 +12°C° 0 mm 3 m/S 764 mmHg 79%
    03:00 +12°C° 0 mm 3 m/S 764 mmHg 82%
    04:00 +11°C° 0 mm 3 m/S 764 mmHg 85%
    05:00 +11°C° 0 mm 3 m/S 764 mmHg 83%
    06:00 +12°C° 0 mm 3 m/S 764 mmHg 80%
    07:00 +12°C° 0 mm 4 m/S 765 mmHg 77%
    08:00 +13°C° 0 mm 4 m/S 765 mmHg 69%
    09:00 +13°C° 0 mm 4 m/S 765 mmHg 61%
    10:00 +14°C° 0 mm 5 m/S 766 mmHg 53%
    11:00 +15°C° 0 mm 4 m/S 766 mmHg 51%
    12:00 +15°C° 0 mm 4 m/S 766 mmHg 48%
    13:00 +17°C° 0 mm 4 m/S 766 mmHg 45%
    14:00 +17°C° 0 mm 4 m/S 766 mmHg 46%
    15:00 +15°C° 0 mm 5 m/S 766 mmHg 47%
    16:00 +15°C° 0 mm 5 m/S 766 mmHg 48%
    17:00 +13°C° 0 mm 4 m/S 767 mmHg 53%
    18:00 +12°C° 0 mm 4 m/S 767 mmHg 59%
    19:00 +11°C° 0 mm 3 m/S 768 mmHg 64%
    20:00 +10°C° 0 mm 3 m/S 768 mmHg 66%
    21:00 +9°C° 0 mm 3 m/S 768 mmHg 68%
    22:00 +8°C° 0 mm 3 m/S 769 mmHg 70%
    23:00 +8°C° 0 mm 3 m/S 769 mmHg 71%

    29 September, Samstag

    Zeit Temperatur Niederschläge Wind Luftdruck Luftfeuchtigkeit
    00:00 +7°C° 0 mm 3 m/S 769 mmHg 72%
    01:00 +7°C° 0 mm 2 m/S 769 mmHg 73%
    02:00 +6°C° 0 mm 2 m/S 769 mmHg 75%
    03:00 +6°C° 0 mm 2 m/S 770 mmHg 76%
    04:00 +6°C° 0 mm 2 m/S 770 mmHg 77%
    05:00 +6°C° 0 mm 2 m/S 770 mmHg 78%
    06:00 +6°C° 0 mm 2 m/S 770 mmHg 78%
    07:00 +7°C° 0 mm 1 m/S 770 mmHg 78%
    08:00 +9°C° 0 mm 1 m/S 771 mmHg 69%
    09:00 +11°C° 0 mm 1 m/S 771 mmHg 60%
    10:00 +14°C° 0 mm 1 m/S 771 mmHg 51%
    11:00 +14°C° 0 mm 1 m/S 771 mmHg 46%
    12:00 +15°C° 0 mm 1 m/S 771 mmHg 42%
    13:00 +16°C° 0 mm 1 m/S 771 mmHg 38%
    14:00 +16°C° 0 mm 1 m/S 770 mmHg 37%
    15:00 +16°C° 0 mm 1 m/S 770 mmHg 37%
    16:00 +16°C° 0 mm 1 m/S 770 mmHg 37%
    17:00 +14°C° 0 mm 1 m/S 770 mmHg 43%
    18:00 +12°C° 0 mm 1 m/S 770 mmHg 49%
    19:00 +10°C° 0 mm 1 m/S 770 mmHg 55%
    20:00 +10°C° 0 mm 1 m/S 770 mmHg 59%
    21:00 +9°C° 0 mm 1 m/S 770 mmHg 63%
    22:00 +9°C° 0 mm 1 m/S 770 mmHg 68%
    23:00 +8°C° 0 mm 1 m/S 769 mmHg 70%

    30 September, Sonntag

    Zeit Temperatur Niederschläge Wind Luftdruck Luftfeuchtigkeit
    00:00 +8°C° 0 mm 1 m/S 769 mmHg 72%
    01:00 +7°C° 0 mm 1 m/S 769 mmHg 74%
    02:00 +7°C° 0 mm 1 m/S 769 mmHg 76%
    03:00 +7°C° 0 mm 1 m/S 769 mmHg 77%
    04:00 +7°C° 0 mm 1 m/S 768 mmHg 79%
    05:00 +7°C° 0 mm 1 m/S 768 mmHg 78%
    06:00 +7°C° 0 mm 1 m/S 768 mmHg 78%
    07:00 +7°C° 0 mm 1 m/S 768 mmHg 77%
    08:00 +8°C° 0 mm 2 m/S 768 mmHg 70%
    09:00 +10°C° 0 mm 2 m/S 768 mmHg 64%
    10:00 +13°C° 0 mm 2 m/S 768 mmHg 57%
    11:00 +13°C° 0 mm 3 m/S 767 mmHg 54%
    12:00 +14°C° 0 mm 3 m/S 767 mmHg 51%
    13:00 +16°C° 0 mm 3 m/S 767 mmHg 48%
    14:00 +16°C° 0 mm 3 m/S 766 mmHg 49%
    15:00 +16°C° 0 mm 3 m/S 766 mmHg 51%
    16:00 +14°C° 0 mm 4 m/S 766 mmHg 53%
    17:00 +13°C° 0 mm 3 m/S 766 mmHg 60%
    18:00 +12°C° 0 mm 3 m/S 766 mmHg 67%
    19:00 +12°C° 0 mm 2 m/S 766 mmHg 74%
    20:00 +11°C° 0 mm 3 m/S 766 mmHg 76%
    21:00 +11°C° 0 mm 3 m/S 766 mmHg 78%
    22:00 +11°C° 0 mm 3 m/S 766 mmHg 80%
    23:00 +11°C° 0 mm 3 m/S 766 mmHg 79%
    Mehr zeigen